This is the latest recevied weather packets stored in our database for station/object K3BAY-1. If no packets are shown the sender has not sent any weather packets the latest 10 day(s).
| Time | Temp. | Humidity | Pressure | Rain* | Wind** | Luminosity | Snow |
|---|---|---|---|---|---|---|---|
| 1777784553 | 9.44° C | 63% | 1011.5 hPa | 0 mm | - | 0 W/m² | - |
| 1777784251 | 10° C | 62% | 1011.9 hPa | 0 mm | - | 0 W/m² | - |
| 1777783948 | 10° C | 63% | 1011.9 hPa | 0 mm | - | 0 W/m² | - |
| 1777783644 | 10° C | 62% | 1011.1 hPa | 0 mm | - | 0 W/m² | - |
| 1777783342 | 10° C | 60% | 1010.8 hPa | 0 mm | - | 0 W/m² | - |
| 1777783039 | 10° C | 61% | 1011.1 hPa | 0 mm | - | 0 W/m² | - |
| 1777782736 | 10.56° C | 63% | 1010.8 hPa | 0 mm | - | 0 W/m² | - |
| 1777782432 | 10.56° C | 62% | 1011.5 hPa | 0 mm | - | 0 W/m² | - |
| 1777782129 | 10.56° C | 61% | 1011.1 hPa | 0 mm | - | 0 W/m² | - |
| 1777781825 | 10.56° C | 62% | 1011.1 hPa | 0 mm | - | 0 W/m² | - |
| 1777781523 | 10.56° C | 60% | 1011.5 hPa | 0 mm | - | 0 W/m² | - |
| 1777781220 | 10.56° C | 60% | 1011.5 hPa | 0 mm | - | 0 W/m² | - |
| 1777780917 | 11.11° C | 60% | 1011.5 hPa | 0 mm | - | 0 W/m² | - |
| 1777780614 | 11.11° C | 59% | 1011.5 hPa | 0 mm | - | 0 W/m² | - |
| 1777780311 | 11.11° C | 60% | 1011.9 hPa | 0 mm | - | 0 W/m² | - |
| 1777780009 | 11.67° C | 64% | 1011.5 hPa | 0 mm | - | 0 W/m² | - |
| 1777779705 | 11.67° C | 61% | 1011.9 hPa | 0 mm | - | 0 W/m² | - |
| 1777779403 | 11.67° C | 61% | 1011.1 hPa | 0 mm | - | 0 W/m² | - |
| 1777779100 | 11.67° C | 63% | 1010.8 hPa | 0 mm | - | 0 W/m² | - |
| 1777778798 | 11.67° C | 59% | 1011.1 hPa | 0 mm | - | 0 W/m² | - |
| 1777778497 | 11.67° C | 59% | 1010.8 hPa | 0 mm | - | 0 W/m² | - |
| 1777778194 | 11.67° C | 61% | 1011.1 hPa | 0 mm | - | 0 W/m² | - |
| 1777777892 | 11.67° C | 62% | 1011.1 hPa | 0 mm | - | 0 W/m² | - |
| 1777777587 | 11.67° C | 61% | 1011.1 hPa | 0 mm | - | 0 W/m² | - |
| 1777777284 | 11.67° C | 58% | 1011.1 hPa | 0 mm | - | 0 W/m² | - |
* Rain latest hour (hover to see other rain measurements)
** Current wind speed in m/s (hover to see current wind gust speed)